Detroit, MI

8:29 PM EST on December 05, 2016 (GMT -0500)
Detroit Metro Wayne County

Weather History for KDTW - June, 2012

Change the Weather History Date:

Monday, June 25, 2012

  Actual Average Record
Temperature  
Mean Temperature 68 °F 72 °F  
Max Temperature 76 °F 82 °F 104 °F (1988)
Min Temperature 60 °F 62 °F 43 °F (1964)
Degree Days  
Heating Degree Days 0 0  
Month to date heating degree days 19 34  
Since 1 June heating degree days 19 34  
Since 1 July heating degree days 4883 6136  
Cooling Degree Days 3 7  
Month to date cooling degree days 178 127  
Year to date cooling degree days 295 175  
Since 1 June cooling degree days 178 127  
Growing Degree Days 18 (Base 50)    
Moisture  
Dew Point 48 °F    
Average Humidity 52    
Maximum Humidity 73    
Minimum Humidity 31    
Precipitation  
Precipitation 0.00 in 0.11 in 2.17 in (1968)
Month to date precipitation 1.31 2.97  
Year to date precipitation 13.04 15.51  
Snow  
Snow 0.00 in 0.00 in 0.00 in ()
Month to date snowfall 0.0 0.0  
Since 1 June snowfall 0.0 0.0  
Since 1 July snowfall 26.0 42.5  
Snow Depth 0.00 in    
Sea Level Pressure  
Sea Level Pressure 30.00 in    
Wind  
Wind Speed 11 mph (North)    
Max Wind Speed 22 mph    
Max Gust Speed 28 mph    
Visibility 10 miles    
Events      
T = Trace of Precipitation, MM = Missing Value Source: NWS Daily Summary

Daily Weather History Graph

Daily Weather History Graph

Search for Another Location

Airport or City:

Trip Planner

Search our weather history database for the weather conditions in past years. The results will help you decide how hot, cold, wet, or windy it might be!

Date:

Astronomy

Jun. 25, 2012 Rise Set
Actual Time 5:58 AM EDT 9:13 PM EDT
Civil Twilight 5:23 AM EDT 9:48 PM EDT
Nautical Twilight 4:38 AM EDT 10:33 PM EDT
Astronomical Twilight 3:44 AM EDT 11:27 PM EDT
Moon 12:14 PM EDT (6/25) 12:04 AM EDT (6/25)
Length of Visible Light 16h 24m
Length of Day
15h 15m
Waxing Crescent, 34% of the Moon is Illuminated
Jun 25
Waxing Crescent
Jun 26
First Quarter
Jul 3
Full
Jul 10
Last Quarter
Jul 19
New

Hourly Weather History & Observations

Time (EDT) Temp. Dew Point Humidity Pressure Visibility Wind Dir Wind Speed Gust Speed Precip Events Conditions
12:53 AM 70.0 °F 60.1 °F 71% 29.92 in 10.0 mi North 11.5 mph - N/A   Overcast
1:53 AM 68.0 °F 57.9 °F 70% 29.93 in 10.0 mi North 12.7 mph - N/A   Scattered Clouds
2:53 AM 66.0 °F 57.0 °F 73% 29.93 in 10.0 mi NNE 11.5 mph - N/A   Scattered Clouds
3:53 AM 64.9 °F 55.0 °F 70% 29.94 in 10.0 mi North 10.4 mph - N/A   Scattered Clouds
4:53 AM 63.0 °F 53.1 °F 70% 29.95 in 10.0 mi NNW 8.1 mph - N/A   Scattered Clouds
5:53 AM 61.0 °F 51.1 °F 70% 29.97 in 10.0 mi North 10.4 mph - N/A   Scattered Clouds
6:53 AM 62.1 °F 51.1 °F 67% 29.99 in 10.0 mi North 11.5 mph - N/A   Scattered Clouds
7:23 AM 62.6 °F 51.8 °F 68% 30.01 in 10.0 mi North 12.7 mph - N/A   Mostly Cloudy
7:41 AM 62.6 °F 51.8 °F 68% 30.02 in 10.0 mi North 15.0 mph 21.9 mph N/A   Mostly Cloudy
7:53 AM 63.0 °F 53.1 °F 70% 30.01 in 10.0 mi NNW 12.7 mph 21.9 mph N/A   Mostly Cloudy
8:53 AM 66.0 °F 54.0 °F 65% 30.02 in 10.0 mi NNW 12.7 mph 20.7 mph N/A   Scattered Clouds
9:53 AM 70.0 °F 53.1 °F 55% 30.02 in 10.0 mi North 17.3 mph 21.9 mph N/A   Scattered Clouds
10:53 AM 68.0 °F 46.9 °F 47% 30.03 in 10.0 mi NNW 15.0 mph - N/A   Scattered Clouds
11:53 AM 72.0 °F 44.1 °F 37% 30.03 in 10.0 mi North 12.7 mph 25.3 mph N/A   Scattered Clouds
12:53 PM 73.0 °F 45.0 °F 37% 30.03 in 10.0 mi North 13.8 mph 21.9 mph N/A   Partly Cloudy
1:53 PM 73.0 °F 41.0 °F 31% 30.03 in 10.0 mi North 16.1 mph - N/A   Partly Cloudy
2:53 PM 75.0 °F 42.1 °F 31% 30.02 in 10.0 mi North 9.2 mph 20.7 mph N/A   Partly Cloudy
3:53 PM 75.0 °F 42.1 °F 31% 30.01 in 10.0 mi North 12.7 mph 19.6 mph N/A   Partly Cloudy
4:53 PM 73.9 °F 42.1 °F 32% 30.02 in 10.0 mi North 13.8 mph 23.0 mph N/A   Partly Cloudy
5:53 PM 73.9 °F 41.0 °F 30% 30.01 in 10.0 mi NNW 15.0 mph 21.9 mph N/A   Partly Cloudy
6:53 PM 73.0 °F 41.0 °F 31% 30.02 in 10.0 mi North 15.0 mph - N/A   Partly Cloudy
7:53 PM 71.1 °F 41.0 °F 34% 30.02 in 10.0 mi North 8.1 mph - N/A   Partly Cloudy
8:53 PM 69.1 °F 41.0 °F 36% 30.02 in 10.0 mi North 9.2 mph - N/A   Clear
9:53 PM 66.0 °F 42.1 °F 42% 30.02 in 10.0 mi North 6.9 mph - N/A   Clear
10:53 PM 64.9 °F 42.1 °F 43% 30.03 in 10.0 mi NE 4.6 mph - N/A   Clear
11:53 PM 62.1 °F 43.0 °F 50% 30.04 in 10.0 mi NNE 3.5 mph - N/A   Clear